Regional Weather Roundup
Issued by NWS

Home | Current Version | Previous Version | Text Only | Print | Product List | Glossary Off
Versions: 1 2 3 4 5 6 7 8 9 10 11 12 13 14 15 16 17 18 19 20 21 22 23 24 25 26 27 28 29 30 31 32 33 34 35 36 37 38 39 40 41 42 43 44 45 46 47 48 49 50

000
ASUS45 KTFX 070610
RWRMT
MONTANA REGIONAL WEATHER ROUNDUP
NATIONAL WEATHER SERVICE GREAT FALLS MT
1200 AM MDT TUE JUL 07 2015

NOTE: "FAIR" INDICATES FEW OR NO CLOUDS BELOW 12000 FEET WITH NO
SIGNIFICANT WEATHER AND/OR OBSTRUCTIONS TO VISIBILITY.

MTZ001>007-043-070700-
WEST OF THE DIVIDE

CITY           SKY/WX    TMP DP  RH WIND       PRES   REMARKS
KALISPELL      CLEAR     55  45  68 CALM      30.02S
MISSOULA       CLEAR     62  36  37 CALM      30.05R
BUTTE          CLEAR     56  44  64 S3        30.19S
MULLAN PASS    MOCLDY    65  36  34 SE5       30.19S
DEER LODGE       N/A     55  30  38 W3        30.18R
EUREKA           N/A     68  45  42 E5        30.00S
HAMILTON         N/A     61  41  48 S3        30.07R
LIBBY            N/A     64  43  45 SE3       30.00R
PLAINS           N/A     64  46  52 CALM      30.01S
RONAN            N/A     55  48  77 NE1       30.07F
THOMPSON FALLS   N/A     66  45  46 CALM      30.03S
$$

MTZ008-052>055-070700-
SOUTHWEST MONTANA

CITY           SKY/WX    TMP DP  RH WIND       PRES   REMARKS
BOZEMAN        CLEAR     62  49  62 CALM      30.12S
DILLON         MOCLDY    64  49  57 E6        30.15R
W YELLOWSTONE  CLOUDY    57  54  88 CALM      30.24F
THREE FORKS      N/A     66  53  63 CALM      30.10S
$$

MTZ009-010-012-014-046-048-049-054-070700-
EAST SLOPES AND CENTRAL MONTANA

CITY           SKY/WX    TMP DP  RH WIND       PRES   REMARKS
CUT BANK       CLEAR     56  46  69 S8        30.09S
GREAT FALLS    CLEAR     61  49  64 E3        30.08F
MALMSTROM AFB  CLEAR     56  51  83 SE5       30.09S
HELENA         CLEAR     67  49  52 SW7       30.10S
CONRAD           N/A     53  51  93 CALM      30.11S
$$

MTZ011-013-016-021-045-047-050-051-070700-
NORTH CENTRAL MONTANA

CITY           SKY/WX    TMP DP  RH WIND       PRES   REMARKS
HAVRE          CLEAR     57  52  83 NE3       30.06F
LEWISTOWN      CLEAR     56  49  77 SE8       30.12F
CHINOOK          N/A     59  50  72 E6        30.07S
FORT BENTON      N/A     63  50  63 CALM      30.07S
$$

MTZ017>020-022>027-061-062-070700-
NORTHEAST MONTANA

CITY           SKY/WX    TMP DP  RH WIND       PRES   REMARKS
GLASGOW        CLEAR     57  47  69 E10       30.11S
JORDAN           N/A     56  49  77 E3        30.12S
SIDNEY         CLEAR     57  48  72 CALM      30.17R
WOLF POINT     CLEAR     55  49  80 NE5       30.13R
MALTA            N/A     56  45  66 CALM      30.05F
PLENTYWOOD       N/A     54  45  71 E5        30.15F
POPLAR           N/A     57  52  82 E7        30.14S
SCOBEY           N/A     56  44  64 SE2       30.12S
$$

MTZ028>42-056>058-070700-
SOUTHCENTRAL AND SOUTHEAST MONTANA

CITY           SKY/WX    TMP DP  RH WIND       PRES   REMARKS
BAKER          CLEAR     53  49  86 E8        30.19R
BILLINGS       PTCLDY    63  52  67 S7        30.13F
LIVINGSTON     CLEAR     60  48  64 SE6       30.15R
MILES CITY     PTCLDY    61  48  62 SE7       30.13S
EKALAKA          N/A     58  47  66 SE7       30.15S
FORSYTH          N/A     59  50  72 SE6       30.12S
LAUREL           N/A     59  49  69 CALM      30.10F
ROUNDUP          N/A     62  44  51 CALM      30.04F
$$

REGIONAL REPORTS...DAKOTAS

CITY           SKY/WX    TMP DP  RH WIND       PRES   REMARKS
WILLISTON      CLEAR     55  45  68 CALM      30.17S
MINOT          CLEAR     52  46  80 SW3       30.17R
DICKINSON      CLEAR     52  49  89 SE7       30.18S FOG
BEACH          CLOUDY    50  50 100 SE6       30.19S FOG
CROSBY         FAIR      50  50 100 S7        30.17S
BISMARCK       CLEAR     51  49  92 E3        30.20R
GRAND FORKS    CLEAR     47  45  93 W7        30.16R
FARGO          CLEAR     52  45  77 NW3       30.16S
BUFFALO SD       N/A     54  49  83 E7        30.14R
RAPID CITY     MOCLDY    60  57  89 SE3       30.20F
$$

REGIONAL REPORTS...WYOMING/IDAHO/WASHINGTON

CITY           SKY/WX    TMP DP  RH WIND       PRES   REMARKS
GILLETTE       CLEAR     51  48  89 S5        30.20S
SHERIDAN       CLEAR     53  51  93 S5        30.16F
BUFFALO WY     PTCLDY    55  52  89 SE7       30.20S
CODY           PTCLDY    61  52  72 SW5       30.18S
YELLOWSTONE LA   N/A     50  47  89 CALM      30.33F
IDAHO FALLS    MOCLDY    61  51  70 N9        30.15S
SALMON         CLEAR     72  45  37 S3        30.06R
BOISE          PTCLDY    79  48  33 SE5       29.96R
SPOKANE        PTCLDY    80  43  26 E5        29.93S
$$

REGIONAL REPORTS...ALBERTA

CITY           SKY/WX    TMP DP  RH WIND       PRES   REMARKS
EDMONTON       CLEAR     59  43  55 NW13      30.05R
CALGARY        LGT RAIN  57  52  82 CALM      30.15F
LETHBRIDGE     CLEAR     57  50  77 SE7       30.02S
MEDICINE HAT   CLEAR     63  45  51 W3        30.03S
WATERTON GATE    N/A     63  43  48 S9          N/A
CARDSTON         N/A     61  52  72 S3          N/A
ONEFOUR          N/A     55  46  71 E7          N/A
$$

REGIONAL REPORTS...SASKATCHEWAN

CITY           SKY/WX    TMP DP  RH WIND       PRES   REMARKS
SWIFT CURRENT  CLEAR     55  48  76 S12       30.08S
REGINA         PTCLDY    52  45  76 SE7       30.12F
SASKATOON      CLEAR     57  45  62 S9        30.07S
CYPRESS HILLS    N/A     52  39  62 S6          N/A
VAL MARIE        N/A     50  45  81 CALM        N/A
ROCKGLEN         N/A     52  45  76 SE9         N/A
ASSINIBOIA       N/A     54  50  87 SW3         N/A
$$


USA.gov is the U.S. government's official web portal to all federal, state and local government web resources and services.